GW0269 Weather Reports


time (UTC)temp
C
wind
direction
speed
KPH
gust
KPH
rain 1hr
cm
rain 24hr
cm
rain mn
cm
humidity
%
barometer
mb
20260507201550 14 285 12.9 24.1 0.00 2.29 2.29 87 1001.6
20260507200053 14 261 11.3 24.1 0.00 2.29 2.29 88 1001.7
20260507194550 13 228 11.3 22.5 0.00 2.29 2.29 90 1001.5
20260507193058 13 231 12.9 19.3 0.00 2.29 2.29 92 1001.5
20260507191549 13 200 3.2 14.5 0.00 2.29 2.29 92 1001.6
20260507190054 13 228 4.8 14.5 0.00 2.29 2.29 92 1001.8
20260507184555 13 166 3.2 11.3 0.00 2.29 2.29 92 1001.6
20260507183103 13 146 3.2 8.0 0.00 2.29 2.29 92 1001.5
20260507181551 12 0 1.6 9.7 0.00 2.29 2.29 92 1001.8
20260507180052 12 200 3.2 11.3 0.00 2.29 2.29 92 1002.2
20260507174604 11 187 1.6 16.1 0.08 2.29 2.29 92 1002.3
20260507173057 12 221 6.4 12.9 0.08 2.29 2.29 92 1002.3
20260507171608 12 136 1.6 11.3 0.20 2.29 2.29 92 1001.5
20260507170058 11 148 3.2 8.0 0.20 2.26 2.26 92 1002.0
20260507164603 11 171 1.6 6.4 0.15 2.21 2.21 91 1002.2
20260507163055 11 113 3.2 12.9 0.18 2.18 2.18 91 1002.0
20260507161600 11 145 4.8 11.3 0.18 2.06 2.06 91 1003.0
20260507160101 12 109 3.2 9.7 0.23 2.06 2.06 91 1002.6
20260507154554 12 159 1.6 8.0 0.33 2.06 2.06 91 1002.8
20260507153058 12 127 1.6 6.4 0.36 1.98 1.98 91 1003.0
20260507151557 11 188 1.6 4.8 0.71 1.88 1.88 91 1003.6
20260507150057 11 213 1.6 4.8 0.74 1.80 1.80 91 1003.7
20260507144556 11 146 1.6 9.7 0.84 1.70 1.70 91 1003.9
20260507143057 11 0 0.0 17.7 0.74 1.60 1.60 91 1004.2
20260507141557 11 202 1.6 4.8 0.36 1.17 1.17 91 1004.6
20260507140052 11 204 6.4 17.7 0.23 1.04 1.04 91 1003.8
20260507134556 11 209 4.8 19.3 0.05 0.86 0.86 91 1004.7
20260507133058 11 210 4.8 19.3 0.03 0.84 0.84 91 1004.2
20260507131600 11 240 11.3 25.7 0.00 0.81 0.81 91 1004.4
20260507130100 11 209 6.4 16.1 0.00 0.81 0.81 91 1004.5
20260507124554 11 201 9.7 19.3 0.00 0.81 0.81 91 1004.5
20260507123105 11 154 4.8 17.7 0.00 0.81 0.81 91 1004.6
20260507121555 11 148 6.4 22.5 0.00 0.81 0.81 91 1005.2
20260507120058 11 161 11.3 24.1 0.00 0.81 0.81 90 1005.2
20260507114556 12 130 8.0 17.7 0.00 0.81 0.81 91 1005.1
20260507113054 11 144 6.4 17.7 0.00 0.81 0.81 91 1005.2
20260507111551 11 216 6.4 25.7 0.00 0.81 0.81 91 1005.7
20260507110106 11 194 6.4 25.7 0.00 0.81 0.81 90 1006.1
20260507104549 11 169 8.0 19.3 0.00 0.81 0.81 90 1005.8
20260507103056 11 169 8.0 19.3 0.00 0.81 0.81 90 1006.1
20260507101550 11 202 8.0 27.4 0.00 0.81 0.81 90 1005.9
20260507100053 11 187 9.7 27.4 0.00 0.81 0.81 90 1006.2
20260507094608 11 167 11.3 37.0 0.03 0.81 0.81 90 1005.8
20260507093059 11 203 9.7 27.4 0.03 0.81 0.81 90 1006.2
20260507091620 11 150 14.5 30.6 0.03 0.81 0.81 90 1006.0
20260507090105 11 139 9.7 22.5 0.05 0.79 0.79 89 1006.4
20260507084559 11 182 8.0 38.6 0.10 0.76 0.76 89 1006.6
20260507083056 11 185 9.7 32.2 0.18 0.76 0.76 89 1007.0
20260507081551 11 222 16.1 38.6 0.36 0.76 0.76 89 1007.2
20260507080056 11 210 16.1 33.8 0.41 0.74 0.74 89 1007.3
20260507074551 11 159 14.5 25.7 0.46 0.64 0.64 88 1007.3
20260507073100 11 195 12.9 37.0 0.46 0.56 0.56 88 1007.7
20260507071557 11 205 12.9 38.6 0.36 0.41 0.41 88 1007.9
20260507070103 11 157 12.9 27.4 0.30 0.30 0.30 87 1007.9
20260507064549 11 183 11.3 29.0 0.18 0.18 0.18 86 1008.2
20260507063053 11 161 9.7 24.1 0.08 0.08 0.08 85 1008.8
20260507061552 12 96 14.5 30.6 0.05 0.05 0.05 82 1009.0
20260507060103 12 155 9.7 27.4 0.00 0.00 0.00 81 1009.1
20260507054555 12 177 8.0 27.4 0.00 0.00 0.00 81 1009.5
20260507053054 12 181 14.5 30.6 0.00 0.00 0.00 81 1009.8
20260507051555 12 214 9.7 19.3 0.00 0.00 0.00 80 1009.9
20260507050053 12 121 6.4 24.1 0.00 0.00 0.00 80 1009.9
20260507044555 12 177 11.3 27.4 0.00 0.00 0.00 80 1011.0
20260507043059 12 176 9.7 22.5 0.00 0.00 0.00 80 1011.1
20260507041555 12 0 8.0 17.7 0.00 0.00 0.00 80 1011.6
20260507040103 12 152 8.0 24.1 0.00 0.00 0.00 80 1011.8
20260507034559 12 252 9.7 22.5 0.00 0.00 0.00 80 1012.2
20260507033055 12 195 8.0 17.7 0.00 0.00 0.00 80 1012.2
20260507031553 12 215 9.7 17.7 0.00 0.00 0.00 80 1012.2
20260507030055 13 163 11.3 22.5 0.00 0.00 0.00 79 1012.6
20260507024558 13 190 6.4 22.5 0.00 0.00 0.00 79 1012.9
20260507023054 13 175 8.0 25.7 0.00 0.00 0.00 79 1013.0
20260507021600 13 182 8.0 20.9 0.00 0.00 0.00 79 1013.4
20260507020058 13 342 9.7 29.0 0.00 0.00 0.00 79 1013.3
20260507014559 14 175 6.4 20.9 0.00 0.00 0.00 79 1013.5
20260507013053 14 200 8.0 20.9 0.00 0.00 0.00 79 1014.0
20260507011553 14 172 4.8 17.7 0.00 0.00 0.00 79 1014.4
20260507010111 14 121 8.0 16.1 0.00 0.00 0.00 79 1014.6
20260507004550 15 179 4.8 17.7 0.00 0.00 0.00 78 1014.6
20260507003053 15 223 8.0 20.9 0.00 0.00 0.00 78 1014.8
20260507001556 15 197 8.0 27.4 0.00 0.00 0.00 78 1014.8
20260507000056 15 200 8.0 20.9 0.00 0.00 0.00 77 1015.0
20260506234607 16 192 9.7 30.6 0.00 0.00 0.00 77 1014.9
20260506233059 16 200 8.0 24.1 0.00 0.00 0.00 76 1014.8
20260506231557 16 234 6.4 19.3 0.00 0.00 0.00 75 1014.8
20260506230054 16 207 8.0 22.5 0.00 0.00 0.00 75 1014.7
20260506224553 16 176 9.7 32.2 0.00 0.00 0.00 75 1014.7
20260506223059 16 200 11.3 30.6 0.00 0.00 0.00 75 1014.9
20260506221553 17 187 12.9 32.2 0.00 0.00 0.00 74 1015.0
20260506220056 17 186 17.7 41.8 0.00 0.00 0.00 74 1014.9
20260506214601 17 176 20.9 48.3 0.00 0.00 0.00 74 1015.1
20260506213056 17 176 19.3 37.0 0.00 0.00 0.00 73 1015.1